SCP
0 0 0 0 0 0 0 0 0 0 0 0 0 0 0 0 0 0 0 0 0 0 0 0 0 0 0 0 0 0 0 0 0 0 0 0 0 0 0 0 0 0 0 0
0 0 0 0 0 0 0 0 0 0 0 0 0 0 0 0 0 0 0 0 0 0 0 0 0 0 0 0 0 0 0 0 0 0 0 0 0 0 0 0 0 0 0 0
0 0 0 0 0 0 0 0 0 0 0 0 0 0 0 0 0 0 0 0 0 0 0 0 0 0 0 0 0 0 0 0 0 0 0 0 0 0 0 0 0 0 0 0
0 0 0 0 0 0 0 0 0 0 0 0 0 0 0 0 0 0 0 0 0 0 0 0 0 0 0 0 0 0 0 0 0 0 0 0 0 0 0 0 0 0 0 0
0 0 0 0 0 0 0 0 0 0 0 0 0 0 0 0 0 0 0 0 0 0 0 0 0 0 0 0 0 0 0 0 0 0 0 0 0 0 0 0 0 0 0 0
0 0 0 0 0 0 0 0 0 0 0 0 0 0 0 0 0 0 0 0 0 0 0 0 0 0 0 0 0 0 0 0 0 0 0 0 0 0 0 0 0 0 0 0
0 0 0 0 0 0 0 0 0 0 0 0 0 0 0 0 0 0 0 0 0 0 0 0 0 0 0 0 0 0 0 0 0 0 0 0 0 0 0 0 0 0 0 0
0 0 0 0 0 0 0 0 0 0 0 0 0 0 0 0 0 0 0 0 0 0 0 0 0 0 0 0 0 0 0 0 0 0 0 0 0 0 0 0 0 0 0 0
0 -0 -0 0 0 -0 -0 -0 0 0 0 0 0 0 0 0 0 0 0 0 0 0 0 0 0 0 0 0 0 0 0 0 0 0 0 0 0 0 0 0 0 0 0 0
-0 -0 -0 -0 -0 -0 -0 -0 0 0 0 0 0 0 0 0 0 0 0 0 0 0 0 0 0 0 0 0 0 0 0 0 0 0 0 0 0 0 0 0 0 0 0 0
0 0 -0 -0 -0 0 0 0 0 0 0 0 0 0 0 0 0 0 0 0 0 0 0 0 0 0 0 0 0 0 0 0 0 0 0 0 0 0 0 0 0 0 0 0
0 0 -0 -0 0 0 0 0 0 0 0 0 0 0 0 0 0 0 0 0 0 0 0 0 0 0 0 0 0 0 0 0 0 0 0 0 0 0 0 0 0 0 0 0
0 0 0 0 0 0 0 0 0 0 0 0 0 0 0 0 0 0 0 0 0 0 0 0 0 0 0 0 0 0 0 0 0 0 0 0 0 0 0 0 0 0 0 0
0 0 0 0 0 0 0 0 0 0 0 0 0 0 0 0 0 0 0 0 0 0 0 0 0 0 0 0 0 0 0 0 0 0 0 0 0 0 0 0 0 0 0 0
0 0 0 0 0 0 0 0 0 0 0 0 0 0 0 0 0 0 0 0 0 0 0 0 0 0 0 0 0 0 0 0 0 0 0 0 0 0 0 0 0 0 0 0
0 0 0 0 0 0 0 0 0 0 0 0 0 0 0 0 0 0 0 0 0 0 0 0 0 0 0 0 0 0 0 0 0 0 0 0 0 0 0 0 0 0 0 0
0 0 0 0 0 0 0 0 0 0 0 0 0 0 0 0 0 0 0 0 0 0 0 0 0 0 0 0 0 0 0 0 0 0 0 0 0 0 0 0 0 0 0 0
0 0 0 0 0 0 0 0 0 0 0 0 0 0 0 0 0 0 0 0 0 0 0 0 0 0 0 0 0 0 0 0 0 0 0 0 0 0 0 0 0 0 0 0
0 0 0 0 0 0 0 0 0 0 0 0 0 0 0 0 0 0 0 0 0 0 0 0 0 0 0 0 0 0 0 0 0 0 0 0 0 0 0 0 0 0 0 0
0 0 0 0 0 0 0 0 0 0 0 0 0 0 0 0 0 0 0 0 0 0 0 0 0 0 0 0 0 0 0 0 0 0 0 0 0 0 0 0 0 0 0 0
0 0 0 0 0 0 0 0 0 0 0 0 0 0 0 0 0 0 0 0 0 0 0 0 0 0 0 0 0 0 0 0 0 0 0 0 0 0 0 0 0 0 0 0
0 0 0 0 0 0 0 0 0 0 0 0 0 0 0 0 0 0 0 0 0 0 0 0 0 0 0 0 0 0 0 0 0 0 0 0 0 0 0 0 0 0 0 0
0 0 0 0 0 0 0 0 0 0 0 0 0 0 0 0 0 0 0 0 0 0 0 0 0 0 0 0 0 0 0 0 0 0 0 0 0 0 0 0 0 0 0 0
0 0 0 0 0 0 0 0 0 0 0 0 0 0 0 0 0 0 0 0 0 0 0 0 0 0 0 0 0 0 0 0 0 0 0 0 0 0 0 0 0 0 0 0
0 0 0 0 0 0 0 0 0 0 0 0 0 0 0 0 0 0 0 0 0 0 0 0 0 0 0 0 0 0 0 0 0 0 0 0 0 0 0 0 0 0 0 0
0 0 0 0 0 0 0 0 0 0 0 0 0 0 0 0 0 0 0 0 0 0 0 0 0 0 0 0 0 0 0 0 0 0 0 0 0 0 0 0 0 0 0 0
Wind_Speed
10 10 16 18 20 18 16 15 16 16 16 17 17 16 14 12 11 8 7 6 9 10 8 6 6 6 5 6 6 7 8 8 8 7 7 6 6 5 5 6 7 8 8 8
10 20 21 16 17 20 23 21 17 14 16 17 14 15 12 13 13 9 8 7 11 12 8 6 6 6 7 7 7 8 8 9 9 7 6 6 6 5 5 5 6 8 8 7
21 15 14 19 19 21 24 23 20 16 15 13 8 11 12 12 11 9 8 7 14 15 11 8 8 7 7 7 7 7 9 10 10 9 7 7 5 5 4 4 4 6 7 7
18 20 18 18 21 22 23 24 22 19 13 7 10 6 12 18 15 10 7 7 14 14 12 9 9 8 7 6 6 7 8 8 8 7 7 7 6 5 4 3 4 6 6 6
11 10 17 23 23 23 19 15 21 20 16 10 12 7 7 9 11 10 9 9 14 13 12 10 9 8 7 6 6 7 8 8 8 8 8 8 6 5 4 4 5 5 5 6
15 11 11 19 21 21 17 16 16 16 13 13 13 9 6 7 15 15 11 11 14 14 12 11 9 9 7 6 6 7 8 8 8 9 9 8 8 6 6 5 4 3 3 4
12 17 13 9 14 19 19 14 11 11 11 8 12 8 6 2 8 13 15 14 14 14 13 12 10 9 7 7 6 7 8 8 8 8 8 8 8 7 6 5 4 4 3 3
10 11 17 14 15 14 22 19 9 8 9 7 11 8 3 8 8 10 14 15 14 13 12 11 10 9 8 8 7 7 8 8 8 8 7 7 7 5 4 5 4 4 3 3
8 9 10 16 13 11 16 18 13 7 8 6 6 5 6 6 8 9 13 15 14 14 13 12 11 10 9 8 8 8 8 8 8 7 7 7 6 6 5 5 4 3 3 3
5 7 5 10 9 12 9 9 10 8 7 6 9 9 9 10 10 9 13 15 15 14 13 12 11 10 9 7 8 8 8 8 7 7 6 6 6 5 5 4 4 4 4 4
5 7 3 8 13 14 12 13 13 5 1 4 7 3 5 11 12 12 12 15 16 15 14 12 11 10 9 8 7 8 8 8 7 6 6 7 5 4 4 4 4 4 4 4
9 6 4 4 4 7 9 11 8 2 2 3 5 4 4 9 8 8 10 13 14 13 12 11 11 10 10 8 7 7 7 7 6 6 7 6 5 4 4 4 4 4 4 4
10 6 3 4 4 6 6 8 6 3 2 1 3 5 3 7 6 5 9 11 13 13 12 11 11 10 9 9 8 7 7 7 7 6 6 6 5 5 4 4 4 4 4 4
6 5 6 3 6 7 6 7 6 2 0 1 3 8 5 7 7 6 8 10 12 13 12 11 10 9 9 8 8 8 7 7 7 6 6 6 5 4 3 3 3 4 4 5
5 6 6 4 8 10 8 8 8 6 5 1 2 7 9 9 9 9 9 10 12 12 12 12 11 9 9 8 8 8 8 7 7 6 6 5 4 3 2 2 3 4 5 6
6 7 6 2 4 8 9 11 12 11 9 7 5 2 4 7 9 9 10 10 10 11 10 10 10 10 10 9 8 8 8 7 7 7 6 4 2 2 2 2 3 5 6 6
6 4 4 2 3 3 5 11 12 11 10 9 9 6 2 5 7 8 9 9 9 9 10 10 9 9 9 9 9 8 8 7 7 6 5 3 2 2 2 3 4 5 6 6
6 3 3 1 3 4 2 2 8 11 10 10 7 3 1 6 7 8 6 9 8 9 9 9 8 9 9 9 9 9 8 7 7 6 4 3 1 2 2 4 5 5 5 6
4 3 1 1 1 4 3 1 2 6 7 9 10 6 9 12 9 8 9 10 10 9 9 8 9 10 9 9 10 9 8 7 6 5 4 3 2 2 3 4 5 5 6 6
4 4 1 0 1 2 2 2 4 1 3 2 7 10 13 9 6 4 6 10 11 10 9 10 10 11 10 9 9 8 7 6 6 5 3 2 1 2 4 4 5 5 6 7
7 4 4 2 2 5 2 1 2 3 1 5 3 9 11 5 6 11 11 11 10 10 10 10 10 9 8 8 8 8 7 6 5 4 2 1 2 3 4 4 4 5 6 7
9 8 7 5 5 7 3 3 1 2 0 3 7 11 13 13 14 13 11 10 9 9 9 9 9 8 7 7 7 8 7 6 4 2 1 2 2 3 3 4 5 6 6 7
8 8 7 8 7 2 3 3 3 3 4 6 9 13 15 14 12 11 10 9 8 8 7 8 9 8 6 6 7 8 6 5 3 1 1 2 3 3 4 4 5 5 5 5
5 4 4 5 4 4 3 3 2 6 8 9 10 10 12 13 11 11 9 8 7 7 7 7 8 8 6 6 7 7 6 4 2 1 2 3 3 4 4 4 4 4 5 5
5 5 3 3 5 5 3 3 6 10 11 11 10 10 11 12 10 9 8 8 7 6 5 6 7 7 7 7 6 6 5 3 2 2 3 3 3 4 4 4 4 6 5 8
6 6 7 6 9 7 6 8 9 11 11 12 13 12 10 10 10 9 7 6 6 6 6 6 7 8 7 7 6 5 4 3 3 2 3 3 3 4 4 5 6 10 13 18
Wind_Direction
200 211 218 216 219 236 253 245 231 230 222 222 227 233 233 239 247 235 229 200 145 124 121 132 127 109 90 82 91 99 104 100 96 96 95 92 87 78 68 63 59 54 47 44
220 226 229 230 232 234 245 256 255 249 229 222 227 233 231 228 228 222 218 196 143 127 128 132 118 99 91 86 80 79 82 85 88 91 92 97 99 92 86 72 62 59 51 42
223 234 228 233 235 234 236 240 246 248 248 217 219 241 238 236 227 219 210 183 143 140 142 145 118 99 86 79 82 90 90 94 99 102 105 106 97 93 82 81 75 65 59 45
235 241 241 233 233 232 238 233 241 246 243 218 206 236 229 222 217 203 188 173 141 141 142 139 124 107 96 89 85 89 93 99 109 117 113 111 105 103 104 103 99 91 74 59
228 227 228 233 234 231 238 239 237 240 240 234 204 218 255 207 181 180 185 164 142 141 139 133 124 118 108 96 90 88 84 79 77 79 86 95 99 105 99 86 74 88 81 68
248 243 235 234 237 235 235 242 246 243 238 231 207 202 247 218 178 178 174 151 141 138 133 125 118 114 107 100 95 92 88 80 75 77 79 88 95 93 85 76 64 65 76 64
242 239 232 241 237 228 222 215 207 203 212 208 189 195 226 87 133 157 157 148 143 138 137 136 135 131 129 124 116 109 103 93 85 83 81 79 83 83 75 72 63 55 50 46
227 230 209 208 220 211 211 216 211 185 177 174 173 189 186 116 92 118 140 143 143 144 144 145 144 139 139 141 135 122 111 104 96 91 90 84 80 82 76 65 61 57 52 41
244 240 187 196 201 216 200 215 240 260 171 141 157 170 115 113 111 129 142 147 152 153 150 150 147 143 144 148 139 127 118 111 108 104 98 89 82 80 74 67 58 48 34 26
276 271 207 181 186 224 222 192 225 234 162 147 163 178 167 167 159 158 159 160 158 156 153 152 149 144 147 143 132 129 123 120 112 100 99 97 85 79 75 69 54 36 20 16
214 277 246 172 198 193 193 200 227 253 152 138 142 142 136 155 158 164 169 166 162 160 157 154 149 144 138 131 132 128 123 119 117 117 107 94 82 67 68 67 49 25 11 4
191 244 255 210 203 204 208 201 218 163 86 23 104 98 70 104 117 147 162 161 157 154 152 149 144 139 138 143 141 135 134 127 120 111 103 99 93 71 58 54 37 21 7 349
178 213 206 155 167 200 211 204 237 318 27 25 93 128 109 107 109 126 142 146 148 148 148 147 145 147 150 151 147 144 136 127 121 114 111 105 88 67 51 37 23 6 345 328
198 224 242 211 167 163 171 185 211 236 193 163 103 124 147 133 133 135 137 143 146 152 155 154 152 154 153 151 147 142 131 125 119 111 103 93 83 70 46 22 360 339 325 315
228 272 260 241 160 158 160 178 198 218 246 282 126 139 165 164 156 152 148 146 149 159 161 158 155 154 150 145 142 135 127 122 121 113 104 94 81 69 35 3 342 324 313 306
210 287 309 55 125 156 170 189 199 211 223 246 281 280 140 147 140 142 153 159 162 164 158 152 150 150 149 145 139 129 124 123 120 114 108 103 83 47 15 344 321 306 298 293
184 258 303 113 126 125 202 203 203 211 216 216 229 237 77 107 129 146 155 156 154 150 147 147 149 145 142 137 131 129 121 117 113 109 108 106 77 23 358 330 313 303 300 304
181 237 320 69 137 204 228 181 201 212 220 216 225 215 130 132 91 60 88 121 119 126 132 134 131 126 123 120 119 114 114 115 113 117 122 117 74 6 339 317 309 309 310 309
183 169 336 30 237 255 231 185 194 204 228 211 210 183 112 105 74 38 36 77 93 97 107 111 113 113 109 110 112 111 113 117 121 120 109 89 46 348 319 312 314 313 311 308
128 116 108 41 225 253 62 38 348 86 245 247 190 158 141 123 125 152 96 79 76 75 85 95 100 102 105 110 115 120 126 126 119 110 100 81 335 300 301 309 312 312 312 303
142 144 174 185 249 283 65 73 13 141 220 343 40 129 137 110 113 119 105 91 88 88 90 95 100 104 112 121 124 121 117 114 113 111 114 265 287 303 306 308 303 302 298 299
165 167 176 173 210 247 161 141 113 141 154 39 71 99 101 99 100 101 100 100 100 100 101 103 105 107 113 120 117 114 114 117 121 136 204 274 307 316 312 300 295 296 300 304
184 182 171 190 205 162 116 102 98 126 106 85 89 102 112 110 110 112 111 111 111 111 111 111 115 114 110 107 114 118 121 125 134 166 285 327 333 313 302 302 303 303 302 303
168 176 188 180 164 145 111 99 110 108 102 94 101 108 111 114 117 117 118 119 119 121 122 124 125 123 116 101 98 115 124 131 136 47 354 339 318 309 314 312 305 304 305 304
152 165 180 157 124 122 154 142 115 101 96 93 89 93 106 113 114 118 121 126 130 133 131 132 136 133 129 124 118 122 127 120 73 24 352 329 324 327 319 309 303 309 295 304
167 175 178 197 176 167 168 147 125 116 113 110 103 89 86 99 106 106 108 117 126 130 131 130 127 127 132 133 132 127 117 96 59 10 339 331 332 325 316 310 308 310 314 320